Zurück zum Katalog

STARLINK-35976

AktivKommunikationVLEO
NORAD 66534·PAYLOAD·🇺🇸 United States

Gestartet Nov 19, 2025 von Cape Canaveral Space Force Station

Loading…

Nächste Überflüge (nächste 24 Stunden)

TLE

AktuellSource: CelesTrak SupGP

Epoche: Sep 15, 2026, 04:04 UTC

1 66534C 25265U   26258.16993056 -.00011978  00000+0 -43370-3 0  2581
2 66534  43.0032 288.2177 0001545 273.1077 234.6422 15.27596056    15

Verfolge STARLINK-35976 in Echtzeit mit AllMySat

Download on the App Store